Погода в Коченяевке

Россия / Ульяновская область     53°52′18″N   46°59′31″E
темп.,
°C
ветер,
м/с
пор.,
м/с
влажн.,
%
обл.,
%
осадки,
мм/ч
давл.,
гПа
погр.,
м
22 января, сб
сб2201:00−10ююв71693100 0.2 1015514
04:00−9ююв61493100 0.6 1015431
07:00−9ююв61394100 0.4 1015392
10:00−7ююв61293100 1.1 1016490
13:00−6ююв61194100 0.3 1016486
16:00−4ююв51195100 0.8 1016729
19:00−4ююв61296100 2.1 1017664
22:00−5ююв61395100 3.4 1019611
23 января, вс
вс2301:00−5ююв4994100 0.4 1021346
04:00−6ююв3895100 0.6 1023238
07:00−6ююв3796100 0.1 1024250
10:00−6ююв3795100 0.4 1026303
13:00−4ююв3695100 0.4 1028373
16:00−4юв3696100 1.1 1029350
19:00−6вюв3796100 0.8 1031274
22:00−7юв3895100 1.0 1032273
24 января, пн
пн2401:00−7в2492100 0.0 1034172
04:00−8в2593100 0.0 1035134
07:00−13всв2296100 0.0 103622
10:00−12в2692100 0.0 1037113
13:00−8вюв3685100 0.0 1037209
16:00−8всв2492100 0.0 1036149
19:00−13вюв2597100 0.0 103781
22:00−15в2298100 0.0 103715
25 января, вт
вт2501:00−16в2298100 0.0 103617
04:00−18в2299100 0.0 103610
07:00−19в2299100 0.0 103512
10:00−15юв2493100 0.0 103473
13:00−9ююв4886100 0.0 1032219
16:00−9ююв399145 0.0 1030249
19:00−15ююв359849 0.0 103063
22:00−17ю3510094 0.0 103063
26 января, ср
ср2601:00−18ююв24100100 0.0 102947
04:00−18ююв24100100 0.1 102954
07:00−15ююв3899100 0.1 1027141
10:00−16ю3899100 0.1 1027150
13:00−10ю4894100 0.1 1026257
16:00−8ююв4894100 0.2 1025308
19:00−9ююв41094100 0.1 1025272
22:00−12ююв2598100 0.1 102566